CW9561 Weather Reports


time (UTC)temp
F
wind
direction
speed
knots
gust
knots
rain 1hr
in
rain 24hr
in
rain mn
in
humidity
%
barometer
mb
20260506062034 31 105 0.0 0.0 0.00 0.00 0.00 94 1011.8
20260506061030 31 105 0.9 0.0 0.00 0.00 0.00 94 1011.5
20260506051038 31 79 0.0 0.0 0.00 0.00 0.20 94 1011.0
20260506045031 32 79 0.0 0.0 0.00 0.00 0.20 94 1010.9
20260506044030 31 79 0.0 0.0 0.00 0.00 0.20 93 1011.1
20260506043027 32 79 0.0 0.0 0.00 0.00 0.20 93 1011.2
20260506041037 32 79 0.0 0.0 0.00 0.00 0.20 93 1011.2
20260506040033 32 79 0.0 0.0 0.00 0.00 0.20 93 1011.2
20260506035028 32 79 0.0 0.0 0.00 0.00 0.20 93 1011.0
20260506034028 32 79 0.0 0.0 0.00 0.00 0.20 93 1011.6
20260506033021 32 79 0.0 0.0 0.00 0.00 0.20 93 1011.7
20260506032037 32 79 0.0 0.0 0.00 0.00 0.20 93 1011.6
20260506031030 33 79 0.0 0.0 0.00 0.00 0.20 93 1011.6
20260506030023 33 79 0.0 0.0 0.00 0.00 0.20 93 1011.3
20260506025042 33 79 0.0 0.0 0.00 0.00 0.20 94 1011.1
20260506023028 34 79 0.0 0.0 0.00 0.00 0.20 94 1011.0
20260506022042 34 79 0.0 0.0 0.00 0.00 0.20 94 1010.9
20260506015031 34 83 0.0 0.0 0.00 0.00 0.20 94 1010.5
20260506014030 34 143 0.0 0.0 0.00 0.00 0.20 94 1010.3
20260506013027 34 143 0.0 0.0 0.00 0.00 0.20 94 1010.2
20260506012041 34 143 0.0 0.0 0.00 0.00 0.20 94 1009.9
20260506011018 34 142 0.0 0.0 0.00 0.00 0.20 94 1009.7
20260506005032 34 142 0.0 0.0 0.00 0.00 0.20 93 1009.5
20260506004023 33 143 0.0 0.0 0.00 0.00 0.20 93 1009.5
20260506003036 33 143 0.0 0.0 0.00 0.00 0.20 92 1010.1
20260506002033 34 143 0.9 0.0 0.00 0.00 0.20 92 1010.1
20260506001027 34 150 0.9 0.0 0.00 0.00 0.20 90 1010.0
20260506000040 35 350 0.0 0.0 0.00 0.00 0.20 91 1009.8
20260505235036 35 344 1.7 0.0 0.00 0.00 0.20 92 1009.7
20260505234036 34 283 0.9 0.0 0.00 0.00 0.20 93 1009.8
20260505233035 34 242 0.0 0.0 0.00 0.00 0.20 94 1009.9
20260505232034 34 157 0.0 0.0 0.00 0.00 0.19 94 1010.0
20260505231028 33 157 0.0 0.0 0.00 0.00 0.18 93 1010.1
20260505230029 33 157 0.0 0.0 0.00 0.00 0.17 93 1010.1
20260505225026 34 157 0.0 0.0 0.00 0.00 0.17 93 1010.0
20260505224023 34 157 0.0 0.0 0.00 0.00 0.17 92 1010.1
20260505223023 34 157 0.0 0.0 0.00 0.00 0.17 92 1010.1
20260505222035 36 157 0.0 0.0 0.00 0.00 0.17 92 1009.7
20260505221030 36 22 1.7 0.0 0.00 0.00 0.17 92 1009.9
20260505220033 36 71 1.7 0.0 0.00 0.00 0.17 92 1009.5
20260505214026 35 160 0.0 0.0 0.00 0.00 0.17 92 1009.4
20260505213041 35 161 0.0 0.0 0.00 0.00 0.16 92 1009.6
20260505212035 35 161 0.0 0.0 0.00 0.00 0.15 91 1009.9
20260505211033 35 337 0.0 0.0 0.00 0.00 0.14 91 1009.3
20260505210029 36 337 0.9 0.0 0.00 0.00 0.12 89 1009.7
20260505205022 37 296 2.6 0.0 0.00 0.00 0.11 88 1009.4
20260505204039 39 349 1.7 0.0 0.00 0.00 0.09 84 1009.5
20260505203033 40 265 0.9 0.0 0.00 0.00 0.08 86 1008.8
20260505202033 40 266 0.0 0.0 0.00 0.00 0.08 86 1008.5
20260505201026 40 266 0.0 0.0 0.00 0.00 0.08 88 1008.8
20260505200040 40 229 0.9 0.0 0.00 0.00 0.08 90 1008.7
20260505194030 39 98 3.5 0.0 0.00 0.00 0.08 91 1008.6
20260505193033 39 114 1.7 0.0 0.00 0.00 0.08 92 1008.8
20260505192033 38 119 0.9 0.0 0.00 0.00 0.08 91 1009.0
20260505190032 38 103 3.5 0.0 0.00 0.00 0.08 92 1009.0
20260505185031 39 69 3.5 0.0 0.00 0.00 0.08 92 1009.1
20260505184025 38 96 1.7 0.0 0.00 0.00 0.08 91 1009.2
20260505183028 39 51 1.7 0.0 0.00 0.00 0.08 91 1009.2
20260505182028 38 271 0.0 0.0 0.00 0.00 0.08 93 1009.3
20260505181022 37 284 0.9 0.0 0.00 0.00 0.08 93 1009.3
20260505180021 37 179 0.0 0.0 0.00 0.00 0.08 93 1010.3
20260505173037 38 337 0.0 0.0 0.00 0.00 0.06 91 1010.0
20260505172033 38 90 0.0 0.0 0.00 0.00 0.05 92 1010.0
20260505171032 38 90 0.0 0.0 0.00 0.00 0.05 91 1009.7
20260505170027 39 90 1.7 0.0 0.00 0.00 0.05 91 1009.8
20260505164038 39 95 0.9 0.0 0.00 0.00 0.05 91 1010.1
20260505163033 39 113 0.0 0.0 0.00 0.00 0.05 91 1010.1
20260505162032 39 95 0.9 0.0 0.00 0.00 0.05 91 1010.2
20260505161025 38 59 0.9 0.0 0.00 0.00 0.04 91 1010.4
20260505153025 37 169 0.0 0.0 0.00 0.00 0.04 92 1010.6
20260505152019 37 231 0.0 0.0 0.00 0.00 0.04 91 1010.4
20260505125024 36 252 0.0 0.0 0.00 0.00 0.02 95 1011.0
20260505124039 34 252 0.0 0.0 0.00 0.00 0.02 94 1011.0
20260505123031 34 252 0.0 0.0 0.00 0.00 0.02 94 1011.0
20260505122020 34 252 0.0 0.0 0.00 0.00 0.02 94 1011.3
20260505121021 34 252 0.0 0.0 0.00 0.00 0.02 94 1011.2
20260505120038 35 252 0.0 0.0 0.00 0.00 0.02 94 1011.3
20260505115030 35 252 0.0 0.0 0.00 0.00 0.02 94 1011.3
20260505112034 36 252 0.0 0.0 0.00 0.00 0.02 94 1011.3
20260505111032 36 252 0.0 0.0 0.00 0.00 0.02 94 1011.5
20260505102025 36 252 0.0 0.0 0.00 0.00 0.02 93 1011.1
20260505100029 36 252 0.0 0.0 0.00 0.00 0.02 93 1011.5
20260505094024 36 126 0.0 0.0 0.00 0.00 0.02 93 1011.5
20260505093040 36 126 0.0 0.0 0.00 0.00 0.02 93 1011.7
20260505092032 37 126 0.0 0.0 0.00 0.00 0.02 93 1011.7
20260505091031 36 161 0.0 0.0 0.00 0.00 0.02 93 1011.7
20260505090025 36 240 0.0 0.0 0.00 0.00 0.01 93 1012.0
20260505085022 36 240 0.0 0.0 0.00 0.00 0.01 94 1012.1
20260505084034 37 240 0.0 0.0 0.00 0.00 0.01 94 1012.3
20260505083026 37 240 0.0 0.0 0.00 0.00 0.01 94 1012.3
20260505082030 37 240 0.0 0.0 0.00 0.00 0.01 94 1012.7
20260505080022 36 240 0.0 0.0 0.00 0.00 0.01 94 1012.6
20260505075036 36 240 0.0 0.0 0.00 0.00 0.01 94 1012.6
20260505074028 36 240 0.0 0.0 0.00 0.00 0.01 94 1012.5
20260505073026 37 240 0.0 0.0 0.00 0.00 0.01 94 1012.4
20260505072038 37 240 0.0 0.0 0.00 0.00 0.01 95 1013.2
20260505071031 37 240 0.0 0.0 0.00 0.00 0.01 95 1013.3